Location: Assche-ter-Heiden
(50.9174°N, 4.1574°E)
Time: 12:54:59
(UTC+00:00)

Cosmos 2112 Rocket - Pass Details

Date: 20 January 2020
Orbit: 756 x 787 km, 74.1° (Epoch: 16 February)

Event Time Altitude Azimuth Distance (km) Brightness Sun altitude
Rises 06:16:31 0° 200° (SSW) 3,264 7.2 -12.2°
Reaches altitude 10° 06:18:53 10° 200° (SSW) 2,342 6.5 -11.8°
Maximum altitude 06:24:14 85° 112° (ESE) 798 4.1 -11.0°
Drops below altitude 10° 06:29:37 10° 25° (NNE) 2,359 6.6 -10.2°
Sets 06:32:01 0° 25° (NNE) 3,290 7.4 -9.9°
